Regional Weather Roundup
Issued by NWS

Home | Current Version | Previous Version | Text Only | Print | Product List | Glossary Off
Versions: 1 2 3 4 5 6 7 8 9 10 11 12 13 14 15 16 17 18 19 20 21 22 23 24 25 26 27 28

000
ASUS45 KBOI 222210
RWRID

IDAHO REGIONAL WEATHER ROUNDUP
NATIONAL WEATHER SERVICE BOISE ID
400 PM MDT THU JUN 22 2017

NOTE: "FAIR" INDICATES FEW OR NO CLOUDS BELOW 12000 FEET
WITH NO SIGNIFICANT WEATHER AND/OR OBSTRUCTIONS TO VISIBILITY

IDZ012-014-222300-
SOUTHWEST IDAHO


CITY           SKY/WX    TMP DP  RH WIND       PRES   REMARKS
BOISE          SUNNY     80  29  15 W21G30    30.09F
CALDWELL       SUNNY     81  38  21 W10       30.09F
MOUNTAIN HOME  SUNNY     83  24  11 NW23G32   30.05F
$$

IDZ016-017-222300-
SOUTHCENTRAL IDAHO


CITY           SKY/WX    TMP DP  RH WIND       PRES   REMARKS
BURLEY         SUNNY     76  33  21 W15G24    30.07F
JEROME         SUNNY     79  29  16 W21G28    30.08F
TWIN FALLS     SUNNY     79  25  13 W23       30.09F
$$

IDZ019>023-222300-
SOUTHEAST IDAHO


CITY           SKY/WX    TMP DP  RH WIND       PRES   REMARKS
IDAHO FALLS    SUNNY     75  35  23 SW10      30.08F
POCATELLO      SUNNY     78  38  23 W16       30.08F
REXBURG        SUNNY     73  27  18 CALM      30.07F
$$

IDZ006-010-011-018-031-032-222300-
CENTRAL IDAHO MOUNTAINS


CITY           SKY/WX    TMP DP  RH WIND       PRES   REMARKS
MCCALL         SUNNY     71  20  14 N13G20    30.18F
HAILEY         SUNNY     75  39  27 CALM      30.10F
STANLEY          N/A     72  22  15 N9        30.19S
SALMON         SUNNY     73  27  17 N6        30.08F
CHALLIS        SUNNY     76  26  15 NE14G23   30.09F
$$

IDZ002-004-006-007-026-222300-
NORTHERN IDAHO


CITY           SKY/WX    TMP DP  RH WIND       PRES   REMARKS
LEWISTON       SUNNY     79  33  19 W12G17    30.19F
LOWELL           N/A     79  34  19 MISG      30.16S
COEUR D`ALENE  SUNNY     73  35  25 VRB5      30.20S
MULLAN PASS    MOSUNNY   57  27  31 VRB5      30.28R
$$




USA.gov is the U.S. government's official web portal to all federal, state and local government web resources and services.